| time (UTC) | temp F | wind direction | speed MPH | gust MPH | rain 1hr in | rain 24hr in | rain mn in | humidity % | barometer mb |
| 20260503192552 | 77 | 154 | 3.0 | 8.0 | 0.00 | 0.00 | 0.00 | 40 | 1020.3 |
| 20260503192053 | 77 | 169 | 2.0 | 7.0 | 0.00 | 0.00 | 0.00 | 40 | 1020.4 |
| 20260503191558 | 76 | 114 | 3.0 | 11.0 | 0.00 | 0.00 | 0.00 | 42 | 1020.4 |
| 20260503191058 | 77 | 173 | 4.0 | 11.0 | 0.00 | 0.00 | 0.00 | 39 | 1020.5 |
| 20260503190553 | 78 | 163 | 3.0 | 9.0 | 0.00 | 0.00 | 0.00 | 40 | 1020.6 |
| 20260503190056 | 77 | 130 | 3.0 | 9.0 | 0.00 | 0.00 | 0.00 | 41 | 1020.5 |
| 20260503185552 | 77 | 156 | 3.0 | 11.0 | 0.00 | 0.00 | 0.00 | 41 | 1020.6 |
| 20260503185052 | 77 | 115 | 3.0 | 11.0 | 0.00 | 0.00 | 0.00 | 43 | 1020.6 |
| 20260503184611 | 76 | 119 | 2.0 | 11.0 | 0.00 | 0.00 | 0.00 | 44 | 1020.9 |
| 20260503184053 | 77 | 196 | 3.0 | 11.0 | 0.00 | 0.00 | 0.00 | 44 | 1021.0 |
| 20260503183552 | 77 | 152 | 4.0 | 11.0 | 0.00 | 0.00 | 0.00 | 42 | 1021.1 |
| 20260503183100 | 76 | 136 | 2.0 | 10.0 | 0.00 | 0.00 | 0.00 | 43 | 1021.2 |
| 20260503182553 | 76 | 116 | 3.0 | 10.0 | 0.00 | 0.00 | 0.00 | 41 | 1021.2 |
| 20260503182052 | 76 | 84 | 4.0 | 10.0 | 0.00 | 0.00 | 0.00 | 41 | 1021.5 |
| 20260503181558 | 76 | 150 | 3.0 | 9.0 | 0.00 | 0.00 | 0.00 | 41 | 1021.5 |
| 20260503181053 | 76 | 150 | 3.0 | 10.0 | 0.00 | 0.00 | 0.00 | 44 | 1021.5 |
| 20260503180553 | 75 | 236 | 3.0 | 10.0 | 0.00 | 0.00 | 0.00 | 44 | 1021.6 |
| 20260503180058 | 76 | 162 | 3.0 | 12.0 | 0.00 | 0.00 | 0.00 | 43 | 1021.7 |
| 20260503175552 | 75 | 179 | 4.0 | 12.0 | 0.00 | 0.00 | 0.00 | 42 | 1022.0 |
| 20260503175052 | 76 | 180 | 5.0 | 12.0 | 0.00 | 0.00 | 0.00 | 45 | 1022.0 |
| 20260503174052 | 76 | 186 | 2.0 | 10.0 | 0.00 | 0.00 | 0.00 | 42 | 1022.1 |
| 20260503173555 | 76 | 187 | 3.0 | 8.0 | 0.00 | 0.00 | 0.00 | 42 | 1022.2 |
| 20260503173058 | 76 | 190 | 3.0 | 12.0 | 0.00 | 0.00 | 0.00 | 44 | 1022.4 |
| 20260503172552 | 76 | 167 | 3.0 | 12.0 | 0.00 | 0.00 | 0.00 | 44 | 1022.4 |
| 20260503172112 | 74 | 182 | 2.0 | 11.0 | 0.00 | 0.00 | 0.00 | 45 | 1022.6 |
| 20260503171611 | 75 | 159 | 3.0 | 11.0 | 0.00 | 0.00 | 0.00 | 43 | 1022.7 |
| 20260503171056 | 75 | 169 | 4.0 | 14.0 | 0.00 | 0.00 | 0.00 | 43 | 1022.7 |
| 20260503170552 | 75 | 150 | 5.0 | 14.0 | 0.00 | 0.00 | 0.00 | 45 | 1022.6 |
| 20260503150552 | 70 | 200 | 3.0 | 8.0 | 0.00 | 0.00 | 0.00 | 54 | 1023.1 |
| 20260503131056 | 55 | 0 | 0.0 | 0.0 | 0.00 | 0.00 | 0.00 | 92 | 1022.2 |
| 20260503130552 | 53 | 0 | 0.0 | 0.0 | 0.00 | 0.00 | 0.00 | 93 | 1022.1 |
| 20260503110553 | 48 | 0 | 0.0 | 0.0 | 0.00 | 0.00 | 0.00 | 92 | 1021.2 |
| 20260503090105 | 50 | 0 | 0.0 | 0.0 | 0.00 | 0.00 | 0.00 | 91 | 1020.6 |
| 20260503081555 | 51 | 0 | 0.0 | 0.0 | 0.00 | 0.00 | 0.00 | 90 | 1021.1 |
| 20260503081053 | 50 | 0 | 0.0 | 0.0 | 0.00 | 0.00 | 0.00 | 91 | 1020.9 |
| 20260503080553 | 50 | 0 | 0.0 | 0.0 | 0.00 | 0.00 | 0.00 | 90 | 1021.0 |
| 20260503072556 | 51 | 0 | 0.0 | 0.0 | 0.00 | 0.00 | 0.00 | 89 | 1021.3 |
| 20260503072054 | 51 | 0 | 0.0 | 0.0 | 0.00 | 0.00 | 0.00 | 89 | 1021.5 |
| 20260503071606 | 51 | 0 | 0.0 | 0.0 | 0.00 | 0.00 | 0.00 | 89 | 1021.5 |
| 20260503071053 | 51 | 0 | 0.0 | 0.0 | 0.00 | 0.00 | 0.00 | 89 | 1021.6 |
| 20260503070553 | 52 | 0 | 0.0 | 0.0 | 0.00 | 0.00 | 0.00 | 89 | 1021.6 |
| 20260503055053 | 53 | 0 | 0.0 | 0.0 | 0.00 | 0.00 | 0.00 | 85 | 1021.6 |
| 20260503054600 | 53 | 0 | 0.0 | 0.0 | 0.00 | 0.00 | 0.00 | 85 | 1021.5 |
| 20260503054057 | 53 | 0 | 0.0 | 0.0 | 0.00 | 0.00 | 0.00 | 85 | 1021.6 |
| 20260503053553 | 53 | 0 | 0.0 | 0.0 | 0.00 | 0.00 | 0.00 | 85 | 1021.5 |
| 20260503053055 | 53 | 0 | 0.0 | 0.0 | 0.00 | 0.00 | 0.00 | 84 | 1021.5 |
| 20260503052553 | 54 | 0 | 0.0 | 0.0 | 0.00 | 0.00 | 0.00 | 84 | 1021.6 |
| 20260503052056 | 54 | 0 | 0.0 | 0.0 | 0.00 | 0.00 | 0.00 | 83 | 1021.6 |
| 20260503051556 | 54 | 0 | 0.0 | 0.0 | 0.00 | 0.00 | 0.00 | 83 | 1021.6 |
| 20260503051052 | 54 | 0 | 0.0 | 0.0 | 0.00 | 0.00 | 0.00 | 82 | 1021.6 |
| 20260503050553 | 54 | 0 | 0.0 | 0.0 | 0.00 | 0.00 | 0.00 | 82 | 1021.5 |
| 20260503050055 | 55 | 0 | 0.0 | 0.0 | 0.00 | 0.00 | 0.00 | 81 | 1021.5 |
| 20260503045554 | 55 | 0 | 0.0 | 0.0 | 0.00 | 0.00 | 0.00 | 81 | 1021.5 |
| 20260503045053 | 55 | 0 | 0.0 | 0.0 | 0.00 | 0.00 | 0.00 | 81 | 1021.4 |
| 20260503044556 | 55 | 0 | 0.0 | 0.0 | 0.00 | 0.00 | 0.00 | 81 | 1021.3 |
| 20260503044053 | 55 | 0 | 0.0 | 0.0 | 0.00 | 0.00 | 0.00 | 81 | 1021.4 |
| 20260503043556 | 55 | 0 | 0.0 | 0.0 | 0.00 | 0.00 | 0.00 | 80 | 1021.4 |
| 20260503043054 | 55 | 0 | 0.0 | 0.0 | 0.00 | 0.00 | 0.00 | 80 | 1021.3 |
| 20260503042555 | 56 | 0 | 0.0 | 0.0 | 0.00 | 0.00 | 0.00 | 80 | 1021.5 |
| 20260503042053 | 56 | 0 | 0.0 | 0.0 | 0.00 | 0.00 | 0.00 | 79 | 1021.6 |
| 20260503041551 | 56 | 0 | 0.0 | 0.0 | 0.00 | 0.00 | 0.00 | 79 | 1021.7 |
| 20260503041052 | 56 | 0 | 0.0 | 0.0 | 0.00 | 0.00 | 0.00 | 79 | 1021.6 |
| 20260503040553 | 57 | 0 | 0.0 | 0.0 | 0.00 | 0.00 | 0.00 | 77 | 1021.5 |
| 20260503040053 | 57 | 0 | 0.0 | 0.0 | 0.00 | 0.00 | 0.00 | 76 | 1021.5 |
| 20260503035553 | 58 | 0 | 0.0 | 0.0 | 0.00 | 0.00 | 0.00 | 75 | 1021.3 |
| 20260503035051 | 58 | 0 | 0.0 | 0.0 | 0.00 | 0.00 | 0.00 | 73 | 1021.2 |
| 20260503034551 | 59 | 0 | 0.0 | 0.0 | 0.00 | 0.00 | 0.00 | 71 | 1021.3 |
| 20260503034053 | 59 | 0 | 0.0 | 0.0 | 0.00 | 0.00 | 0.00 | 70 | 1021.3 |
| 20260503033554 | 60 | 0 | 0.0 | 0.0 | 0.00 | 0.00 | 0.00 | 69 | 1021.3 |
| 20260503033050 | 60 | 0 | 0.0 | 0.0 | 0.00 | 0.00 | 0.00 | 69 | 1021.3 |
| 20260503032553 | 60 | 0 | 0.0 | 0.0 | 0.00 | 0.00 | 0.00 | 69 | 1021.2 |
| 20260503032053 | 60 | 0 | 0.0 | 0.0 | 0.00 | 0.00 | 0.00 | 71 | 1021.2 |
| 20260503031554 | 59 | 0 | 0.0 | 0.0 | 0.00 | 0.00 | 0.00 | 70 | 1021.1 |
| 20260503031053 | 60 | 0 | 0.0 | 0.0 | 0.00 | 0.00 | 0.00 | 68 | 1021.1 |
| 20260503030552 | 61 | 0 | 0.0 | 0.0 | 0.00 | 0.00 | 0.00 | 66 | 1021.0 |
| 20260503030059 | 62 | 0 | 0.0 | 0.0 | 0.00 | 0.00 | 0.00 | 66 | 1021.1 |
| 20260503025553 | 62 | 0 | 0.0 | 0.0 | 0.00 | 0.00 | 0.00 | 64 | 1021.0 |
| 20260503025056 | 62 | 0 | 0.0 | 0.0 | 0.00 | 0.00 | 0.00 | 64 | 1020.9 |
| 20260503024555 | 63 | 0 | 0.0 | 0.0 | 0.00 | 0.00 | 0.00 | 63 | 1020.7 |
| 20260503024053 | 63 | 0 | 0.0 | 0.0 | 0.00 | 0.00 | 0.00 | 62 | 1020.6 |
| 20260503023552 | 63 | 0 | 0.0 | 0.0 | 0.00 | 0.00 | 0.00 | 62 | 1020.7 |
| 20260503023104 | 63 | 0 | 0.0 | 0.0 | 0.00 | 0.00 | 0.00 | 61 | 1020.7 |
| 20260503022552 | 63 | 0 | 0.0 | 0.0 | 0.00 | 0.00 | 0.00 | 61 | 1020.6 |
| 20260503022056 | 63 | 0 | 0.0 | 0.0 | 0.00 | 0.00 | 0.00 | 61 | 1020.5 |
| 20260503021558 | 63 | 0 | 0.0 | 0.0 | 0.00 | 0.00 | 0.00 | 61 | 1020.3 |
| 20260503021053 | 64 | 0 | 0.0 | 1.0 | 0.00 | 0.00 | 0.00 | 60 | 1020.3 |
| 20260503020552 | 64 | 0 | 0.0 | 1.0 | 0.00 | 0.00 | 0.00 | 59 | 1020.2 |
| 20260503020057 | 64 | 0 | 0.0 | 1.0 | 0.00 | 0.00 | 0.00 | 59 | 1020.2 |
| 20260503015553 | 64 | 89 | 0.0 | 1.0 | 0.00 | 0.00 | 0.00 | 58 | 1020.0 |
| 20260503015053 | 65 | 0 | 0.0 | 1.0 | 0.00 | 0.00 | 0.00 | 58 | 1019.9 |
| 20260503014550 | 65 | 0 | 0.0 | 0.0 | 0.00 | 0.00 | 0.00 | 58 | 1019.7 |
| 20260503014052 | 65 | 0 | 0.0 | 0.0 | 0.00 | 0.00 | 0.00 | 57 | 1019.9 |
| 20260503013554 | 65 | 0 | 0.0 | 0.0 | 0.00 | 0.00 | 0.00 | 57 | 1019.8 |
| 20260503013055 | 66 | 0 | 0.0 | 2.0 | 0.00 | 0.00 | 0.00 | 56 | 1019.7 |
| 20260503012552 | 66 | 0 | 0.0 | 2.0 | 0.00 | 0.00 | 0.00 | 55 | 1019.7 |
| 20260503012052 | 66 | 89 | 0.0 | 4.0 | 0.00 | 0.00 | 0.00 | 54 | 1019.6 |
| 20260503011608 | 67 | 88 | 1.0 | 6.0 | 0.00 | 0.00 | 0.00 | 54 | 1019.6 |
| 20260503011108 | 67 | 88 | 1.0 | 6.0 | 0.00 | 0.00 | 0.00 | 53 | 1019.5 |
| 20260503010552 | 67 | 90 | 1.0 | 3.0 | 0.00 | 0.00 | 0.00 | 53 | 1019.4 |
| 20260503010056 | 67 | 0 | 0.0 | 3.0 | 0.00 | 0.00 | 0.00 | 52 | 1019.4 |
| 20260503005557 | 67 | 0 | 0.0 | 4.0 | 0.00 | 0.00 | 0.00 | 52 | 1019.3 |
| 20260503005053 | 68 | 62 | 0.0 | 4.0 | 0.00 | 0.00 | 0.00 | 50 | 1019.4 |
| 20260503004553 | 68 | 58 | 0.0 | 4.0 | 0.00 | 0.00 | 0.00 | 49 | 1019.3 |
| 20260503004052 | 68 | 59 | 1.0 | 4.0 | 0.00 | 0.00 | 0.00 | 48 | 1019.2 |
| 20260503003553 | 69 | 0 | 0.0 | 8.0 | 0.00 | 0.00 | 0.00 | 48 | 1019.2 |
| 20260503003057 | 69 | 54 | 0.0 | 8.0 | 0.00 | 0.00 | 0.00 | 48 | 1019.1 |
| 20260503002553 | 69 | 0 | 0.0 | 4.0 | 0.00 | 0.00 | 0.00 | 47 | 1019.1 |
| 20260503002053 | 69 | 56 | 0.0 | 4.0 | 0.00 | 0.00 | 0.00 | 47 | 1019.2 |
| 20260503001555 | 69 | 0 | 1.0 | 5.0 | 0.00 | 0.00 | 0.00 | 46 | 1019.3 |
| 20260503001052 | 70 | 66 | 1.0 | 5.0 | 0.00 | 0.00 | 0.00 | 46 | 1019.3 |
| 20260503000553 | 70 | 76 | 1.0 | 5.0 | 0.00 | 0.00 | 0.00 | 47 | 1019.3 |
| 20260503000103 | 70 | 0 | 2.0 | 5.0 | 0.00 | 0.00 | 0.00 | 46 | 1019.2 |
| 20260502235552 | 70 | 0 | 1.0 | 7.0 | 0.00 | 0.00 | 0.00 | 45 | 1019.2 |
| 20260502235052 | 70 | 0 | 1.0 | 7.0 | 0.00 | 0.00 | 0.00 | 44 | 1019.2 |
| 20260502234603 | 70 | 85 | 2.0 | 6.0 | 0.00 | 0.00 | 0.00 | 44 | 1019.2 |
| 20260502234053 | 70 | 65 | 1.0 | 6.0 | 0.00 | 0.00 | 0.00 | 43 | 1019.2 |
| 20260502233553 | 71 | 59 | 2.0 | 7.0 | 0.00 | 0.00 | 0.00 | 46 | 1019.2 |
| 20260502233056 | 71 | 72 | 1.0 | 7.0 | 0.00 | 0.00 | 0.00 | 46 | 1019.2 |
| 20260502232552 | 71 | 65 | 2.0 | 7.0 | 0.00 | 0.00 | 0.00 | 44 | 1019.2 |
| 20260502232055 | 71 | 0 | 0.0 | 10.0 | 0.00 | 0.00 | 0.00 | 47 | 1019.1 |
| 20260502231601 | 71 | 60 | 2.0 | 10.0 | 0.00 | 0.00 | 0.00 | 44 | 1019.2 |
| 20260502231055 | 72 | 78 | 2.0 | 7.0 | 0.00 | 0.00 | 0.00 | 45 | 1019.3 |
| 20260502230552 | 72 | 74 | 1.0 | 7.0 | 0.00 | 0.00 | 0.00 | 46 | 1019.2 |
| 20260502230056 | 72 | 18 | 3.0 | 8.0 | 0.00 | 0.00 | 0.00 | 44 | 1019.2 |
| 20260502225553 | 72 | 125 | 1.0 | 8.0 | 0.00 | 0.00 | 0.00 | 44 | 1019.2 |
| 20260502225052 | 72 | 93 | 1.0 | 7.0 | 0.00 | 0.00 | 0.00 | 45 | 1019.1 |
| 20260502224551 | 72 | 0 | 1.0 | 11.0 | 0.00 | 0.00 | 0.00 | 46 | 1019.0 |
| 20260502224052 | 72 | 63 | 2.0 | 11.0 | 0.00 | 0.00 | 0.00 | 44 | 1019.1 |
| 20260502223552 | 72 | 78 | 2.0 | 7.0 | 0.00 | 0.00 | 0.00 | 44 | 1019.0 |
| 20260502223057 | 72 | 67 | 2.0 | 10.0 | 0.00 | 0.00 | 0.00 | 45 | 1019.1 |
| 20260502222552 | 73 | 101 | 3.0 | 10.0 | 0.00 | 0.00 | 0.00 | 45 | 1018.9 |
| 20260502222052 | 73 | 13 | 2.0 | 10.0 | 0.00 | 0.00 | 0.00 | 44 | 1019.1 |
| 20260502221052 | 73 | 60 | 3.0 | 8.0 | 0.00 | 0.00 | 0.00 | 45 | 1019.1 |
| 20260502220552 | 73 | 66 | 1.0 | 8.0 | 0.00 | 0.00 | 0.00 | 46 | 1019.1 |
| 20260502220109 | 72 | 54 | 2.0 | 8.0 | 0.00 | 0.00 | 0.00 | 44 | 1019.1 |
| 20260502215552 | 73 | 64 | 3.0 | 11.0 | 0.00 | 0.00 | 0.00 | 45 | 1019.1 |
| 20260502215053 | 73 | 16 | 2.0 | 11.0 | 0.00 | 0.00 | 0.00 | 43 | 1019.1 |
| 20260502214552 | 73 | 55 | 4.0 | 11.0 | 0.00 | 0.00 | 0.00 | 45 | 1019.2 |
| 20260502214052 | 73 | 0 | 3.0 | 8.0 | 0.00 | 0.00 | 0.00 | 44 | 1019.2 |
| 20260502213558 | 73 | 40 | 3.0 | 8.0 | 0.00 | 0.00 | 0.00 | 45 | 1019.3 |
| 20260502213055 | 72 | 10 | 2.0 | 9.0 | 0.00 | 0.00 | 0.00 | 45 | 1019.4 |
| 20260502212552 | 73 | 69 | 2.0 | 9.0 | 0.00 | 0.00 | 0.00 | 46 | 1019.5 |
| 20260502212052 | 73 | 62 | 1.0 | 9.0 | 0.00 | 0.00 | 0.00 | 45 | 1019.6 |
| 20260502211553 | 73 | 34 | 3.0 | 9.0 | 0.00 | 0.00 | 0.00 | 45 | 1019.7 |
| 20260502211052 | 73 | 59 | 2.0 | 10.0 | 0.00 | 0.00 | 0.00 | 45 | 1019.7 |
| 20260502210555 | 73 | 71 | 4.0 | 11.0 | 0.00 | 0.00 | 0.00 | 46 | 1019.8 |
| 20260502210110 | 73 | 86 | 3.0 | 11.0 | 0.00 | 0.00 | 0.00 | 45 | 1019.9 |
| 20260502205555 | 73 | 20 | 3.0 | 11.0 | 0.00 | 0.01 | 0.00 | 45 | 1019.9 |
| 20260502205053 | 73 | 48 | 2.0 | 9.0 | 0.00 | 0.01 | 0.00 | 48 | 1020.0 |
| 20260502204554 | 72 | 65 | 3.0 | 11.0 | 0.00 | 0.01 | 0.00 | 47 | 1020.1 |
| 20260502204053 | 73 | 63 | 2.0 | 11.0 | 0.00 | 0.01 | 0.00 | 45 | 1020.0 |
| 20260502203553 | 73 | 17 | 3.0 | 11.0 | 0.00 | 0.01 | 0.00 | 46 | 1020.2 |
| 20260502203051 | 72 | 153 | 3.0 | 11.0 | 0.00 | 0.01 | 0.00 | 46 | 1020.2 |
| 20260502202552 | 73 | 61 | 3.0 | 9.0 | 0.00 | 0.01 | 0.00 | 48 | 1020.2 |
| 20260502202057 | 72 | 17 | 2.0 | 10.0 | 0.00 | 0.01 | 0.00 | 48 | 1020.3 |
| 20260502201553 | 72 | 65 | 2.0 | 10.0 | 0.00 | 0.01 | 0.00 | 47 | 1020.4 |
| 20260502201053 | 73 | 48 | 3.0 | 10.0 | 0.00 | 0.01 | 0.00 | 49 | 1020.4 |
| 20260502200555 | 72 | 34 | 3.0 | 10.0 | 0.00 | 0.01 | 0.00 | 47 | 1020.4 |
| 20260502200121 | 72 | 5 | 3.0 | 10.0 | 0.00 | 0.01 | 0.00 | 48 | 1020.5 |
| 20260502195552 | 72 | 134 | 3.0 | 12.0 | 0.00 | 0.01 | 0.00 | 46 | 1020.4 |
| 20260502195054 | 72 | 360 | 4.0 | 12.0 | 0.00 | 0.01 | 0.00 | 48 | 1020.6 |
| 20260502194555 | 72 | 65 | 3.0 | 12.0 | 0.00 | 0.01 | 0.00 | 48 | 1020.5 |
| 20260502194053 | 72 | 12 | 5.0 | 11.0 | 0.00 | 0.01 | 0.00 | 47 | 1020.5 |
| 20260502193553 | 73 | 92 | 2.0 | 12.0 | 0.00 | 0.01 | 0.00 | 51 | 1020.5 |
| 20260502193055 | 72 | 69 | 3.0 | 12.0 | 0.00 | 0.01 | 0.00 | 52 | 1020.4 |